Regional Weather Roundup
Issued by NWS

Home | Current Version | Previous Version | Text Only | Print | Product List | Glossary Off
Versions: 1 2 3 4 5 6 7 8 9 10 11 12 13 14 15 16 17 18 19 20 21 22 23 24 25 26 27 28 29 30 31 32 33 34 35 36 37 38 39 40 41 42 43 44 45 46 47 48 49 50

000
ASUS45 KCYS 101710
RWRWY

WYOMING REGIONAL WEATHER ROUNDUP
NATIONAL WEATHER SERVICE CHEYENNE WY
1100 AM MDT THU JUL 10 2014

NOTE:  "FAIR" INDICATES FEW OR NO CLOUDS BELOW 12,000 FEET
WITH NO SIGNIFICANT WEATHER AND/OR OBSTRUCTIONS TO VISIBILITY.

WYZ001-101800-
YELLOWSTONE NATIONAL PARK

CITY           SKY/WX    TMP DP  RH WIND       PRES   REMARKS
LK YELLOWSTONE   N/A     64  51  62 VRB3      30.26S
W YELLOWSTONE  NOT AVBL

$$
WYZ002>013-054>058-071-098>099-101800-
NORTHERN WYOMING

CITY           SKY/WX    TMP DP  RH WIND       PRES   REMARKS
JACKSON        NOT AVBL
CODY           NOT AVBL
GREYBULL       LGT RAIN  74  58  57 CALM      29.95S
WORLAND          N/A    N/A N/A N/A MISG      29.96F
SHERIDAN       PTSUNNY   82  50  32 NW10G17   29.94S
BUFFALO        PTSUNNY   73  52  47 CALM      30.03R
GILLETTE       PTSUNNY   76  58  53 NW8       29.96S
HULETT         FAIR      75  61  60 MISG      29.97
NEWCASTLE      FAIR      73  55  53 NW6       29.96

$$
WYZ014>020-022>026-101>103-101800-
CENTRAL WYOMING

CITY           SKY/WX    TMP DP  RH WIND       PRES   REMARKS
BIG PINEY      CLOUDY    69  51  52 CALM      30.20S
PINEDALE       CLOUDY    68  46  45 NW6       30.21S
DUBOIS         CLOUDY    70  41  35 NW7       30.17R
LANDER         PTSUNNY   83  44  25 VRB6      30.02S
RIVERTON       PTSUNNY   79  47  32 VRB3      30.04R
CASPER         MOSUNNY   83  50  31 W7        30.03F
DOUGLAS        MOSUNNY   83  57  41 NW13      30.01F

$$
WYZ021-027>030-104>119-101800-
SOUTHERN WYOMING

CITY           SKY/WX    TMP DP  RH WIND       PRES   REMARKS
EVANSTON       LGT RAIN  63  53  70 SW17G24   30.23R
KEMMERER       PTSUNNY   73  50  43 W8        30.23S
FORT BRIDGER   CLOUDY    73  51  46 W10       30.24S
ROCK SPRINGS   PTSUNNY   77  46  33 W13G21    30.17S
DIXON          PTSUNNY   78  44  29 SW13G22   30.21S
RAWLINS        MOSUNNY   81  43  26 SW18G26   30.17S
SARATOGA       PTSUNNY   79  43  27 W18G26    30.21S
LARAMIE        SUNNY     79  43  27 W15       30.20R
CHEYENNE       PTSUNNY   86  43  22 W15G23    30.10S
TORRINGTON     SUNNY     78  61  55 S5        29.95F

$$



USA.gov is the U.S. government's official web portal to all federal, state and local government web resources and services.